AXM6453 WBGR-WBGG

Flight info

Callsign AXM6453
Flight time N/A
Altitude 30000
Route WBGR/02 BIPAS1A BIPAS DCT SARVO G580 PILAX1A WBGG/25
Aircraft A320/M-SDE3FGHIRWY/LB1

Departure

Time N/A
Airport Miri Airport (WBGR)

Arrival

Time 2026-04-30 03:26
Airport Kuching International Airport (WBGG)
Time Latitude Longitude Altitude Speed Heading
2026-04-30 03:13 1.97292 111.03165 14825 ft 378 kts 225°
2026-04-30 03:14 1.95478 111.01258 14292 ft 378 kts 225°
2026-04-30 03:14 1.93673 110.99362 13739 ft 377 kts 225°
2026-04-30 03:14 1.91862 110.97458 13178 ft 376 kts 225°
2026-04-30 03:14 1.90067 110.95572 12623 ft 374 kts 225°
2026-04-30 03:15 1.88276 110.93688 12053 ft 373 kts 225°
2026-04-30 03:15 1.86495 110.91814 11493 ft 371 kts 225°
2026-04-30 03:15 1.84717 110.89950 10905 ft 369 kts 225°
2026-04-30 03:15 1.82956 110.88104 10499 ft 359 kts 225°
2026-04-30 03:16 1.81308 110.86369 10370 ft 331 kts 226°
2026-04-30 03:16 1.79770 110.84747 10041 ft 313 kts 226°
2026-04-30 03:16 1.78291 110.83189 9868 ft 307 kts 226°
2026-04-30 03:16 1.76826 110.81646 9747 ft 305 kts 226°
2026-04-30 03:17 1.75368 110.80111 9609 ft 305 kts 226°
2026-04-30 03:17 1.73903 110.78574 9438 ft 306 kts 226°
2026-04-30 03:17 1.72431 110.77027 9014 ft 305 kts 226°
2026-04-30 03:17 1.70978 110.75499 8619 ft 303 kts 226°
2026-04-30 03:18 1.69532 110.73978 8209 ft 301 kts 226°
2026-04-30 03:18 1.68090 110.72462 7815 ft 299 kts 226°
2026-04-30 03:18 1.66662 110.70959 7401 ft 298 kts 226°
2026-04-30 03:18 1.65244 110.69464 7016 ft 295 kts 226°
2026-04-30 03:19 1.63839 110.67986 6585 ft 293 kts 226°
2026-04-30 03:19 1.62438 110.66513 6159 ft 291 kts 226°
2026-04-30 03:19 1.61031 110.65039 5443 ft 299 kts 226°
2026-04-30 03:19 1.59754 110.63385 4665 ft 299 kts 244°
2026-04-30 03:20 1.59005 110.61518 4394 ft 278 kts 250°
2026-04-30 03:20 1.58338 110.59782 4255 ft 256 kts 249°
2026-04-30 03:20 1.57726 110.58209 4148 ft 232 kts 250°
2026-04-30 03:20 1.57163 110.56766 4045 ft 214 kts 250°
2026-04-30 03:21 1.56634 110.55407 3966 ft 208 kts 249°
2026-04-30 03:21 1.56111 110.54059 3725 ft 209 kts 249°
2026-04-30 03:21 1.55606 110.52695 3387 ft 210 kts 251°
2026-04-30 03:21 1.55101 110.51338 3118 ft 207 kts 250°
2026-04-30 03:22 1.54581 110.50009 2815 ft 203 kts 249°
2026-04-30 03:22 1.54071 110.48721 2534 ft 198 kts 249°
2026-04-30 03:22 1.53571 110.47458 2286 ft 193 kts 249°
2026-04-30 03:22 1.53091 110.46256 2035 ft 178 kts 248°
2026-04-30 03:23 1.52653 110.45153 1805 ft 165 kts 249°
2026-04-30 03:23 1.52246 110.44129 1623 ft 151 kts 249°
2026-04-30 03:23 1.51865 110.43170 1409 ft 146 kts 248°
2026-04-30 03:23 1.51495 110.42237 1214 ft 143 kts 248°
2026-04-30 03:24 1.51129 110.41315 1024 ft 142 kts 248°
2026-04-30 03:24 1.50764 110.40402 829 ft 141 kts 248°
2026-04-30 03:24 1.50398 110.39490 636 ft 141 kts 250°
2026-04-30 03:24 1.50036 110.38579 453 ft 141 kts 248°
2026-04-30 03:25 1.49675 110.37670 259 ft 140 kts 249°
2026-04-30 03:25 1.49321 110.36767 95 ft 140 kts 248°
2026-04-30 03:25 1.48991 110.35941 60 ft 111 kts 248°
2026-04-30 03:25 1.48775 110.35393 71 ft 60 kts 248°
2026-04-30 03:26 1.48670 110.35134 72 ft 27 kts 248°
2026-04-30 03:26 1.48616 110.34991 68 ft 19 kts 253°
2026-04-30 03:26 1.48598 110.34855 75 ft 21 kts 276°
2026-04-30 03:26 1.48611 110.34772 76 ft 6 kts 277°
2026-04-30 03:27 1.48611 110.34767 76 ft 0 kts 277°
2026-04-30 03:28 1.48617 110.34722 68 ft 15 kts 278°
2026-04-30 03:28 1.48635 110.34621 70 ft 15 kts 286°
2026-04-30 03:28 1.48696 110.34550 70 ft 11 kts 276°
2026-04-30 03:28 1.48673 110.34484 72 ft 9 kts 248°
2026-04-30 03:29 1.48653 110.34429 74 ft 8 kts 250°
2026-04-30 03:29 1.48634 110.34379 73 ft 7 kts 248°
2026-04-30 03:29 1.48635 110.34340 72 ft 5 kts 315°
2026-04-30 03:29 1.48664 110.34326 69 ft 4 kts 338°
2026-04-30 03:30 1.48682 110.34319 78 ft 0 kts 339°
2026-04-30 03:30 1.48692 110.34316 75 ft 0 kts 340°
2026-04-30 03:30 1.48693 110.34315 71 ft 1 kts 340°
2026-04-30 03:33 1.54348 110.49421 2686 ft 199 kts 249°
2026-04-30 03:33 1.53844 110.48148 2421 ft 195 kts 249°
2026-04-30 03:33 1.53351 110.46906 2163 ft 187 kts 249°
2026-04-30 03:34 1.52913 110.45810 1937 ft 172 kts 249°
2026-04-30 03:34 1.49244 110.36577 74 ft 128 kts 249°
2026-04-30 03:36 1.49314 110.36748 94 ft 140 kts 248°
2026-04-30 03:36 1.49382 110.36914 120 ft 140 kts 248°
2026-04-30 03:36 1.49043 110.36074 58 ft 118 kts 249°
2026-04-30 03:36 1.48804 110.35466 73 ft 69 kts 248°
2026-04-30 03:37 1.49578 110.37415 212 ft 133 kts 249°
2026-04-30 03:37 1.50463 110.39659 673 ft 140 kts 249°
2026-04-30 03:38 1.50986 110.40955 947 ft 142 kts 248°
2026-04-30 03:38 1.50618 110.40043 754 ft 141 kts 248°
2026-04-30 03:38 1.50260 110.39130 581 ft 140 kts 249°
2026-04-30 03:38 1.49890 110.38223 384 ft 140 kts 248°
2026-04-30 03:39 1.49538 110.37312 208 ft 140 kts 249°
2026-04-30 03:39 1.49181 110.36419 57 ft 131 kts 248°
2026-04-30 03:39 1.48891 110.35686 66 ft 90 kts 249°
2026-04-30 03:39 1.48723 110.35264 74 ft 41 kts 248°
2026-04-30 03:40 1.48643 110.35065 69 ft 26 kts 248°
2026-04-30 03:40 1.48604 110.34940 66 ft 20 kts 257°
2026-04-30 03:40 1.48606 110.34807 67 ft 12 kts 286°
2026-04-30 03:40 1.48611 110.34767 76 ft 0 kts 277°
2026-04-30 03:41 1.48636 110.34385 71 ft 7 kts 249°
2026-04-30 03:41 1.48632 110.34343 70 ft 5 kts 301°
2026-04-30 03:41 1.48661 110.34327 78 ft 4 kts 337°
2026-04-30 03:41 1.48682 110.34319 78 ft 0 kts 339°
2026-04-30 03:42 1.48692 110.34316 70 ft 0 kts 340°
2026-04-30 03:42 1.48692 110.34315 71 ft 0 kts 340°
2026-04-30 03:42 1.48693 110.34315 78 ft 0 kts 340°